Probability
0 0 0 0 0 0 0 0 0 0 0 0 0 0 0 0 0 0 0 0 0 0 0 0 0 0 0 0 0 0 0 0 0 0 0 0 0 0 0 0 0 0 0
0 0 0 0 0 0 0 0 0 0 0 0 0 0 0 0 0 0 0 0 0 0 0 0 0 0 0 0 0 0 0 0 0 0 0 0 0 0 0 0 0 0 0
0 0 0 0 0 0 0 0 0 0 0 0 0 0 0 0 0 0 0 0 0 0 0 0 0 0 0 0 0 0 0 0 0 0 0 0 0 0 0 0 0 0 0
0 0 0 0 0 0 0 0 0 0 0 0 0 0 0 0 0 0 0 0 0 0 0 0 0 0 0 0 0 0 0 0 0 0 0 0 0 0 0 0 0 0 0
0 0 0 0 0 0 0 0 0 0 0 0 0 0 0 0 0 0 0 0 0 0 0 0 0 0 0 0 0 0 0 0 0 0 0 0 0 0 0 0 0 0 0
0 0 0 0 0 0 0 0 0 0 0 0 0 0 0 0 0 0 0 0 0 0 0 0 0 0 0 0 0 0 0 0 0 0 0 0 0 0 0 0 0 0 0
0 0 0 0 0 0 0 0 0 0 0 0 0 0 0 0 0 0 0 0 0 0 0 0 0 0 0 0 0 0 0 0 0 0 0 0 0 0 0 0 0 0 0
0 0 0 0 0 0 0 0 0 0 0 0 0 0 0 0 0 0 0 0 0 0 0 0 0 0 0 0 0 0 0 0 0 0 0 0 0 0 0 0 0 0 0
0 0 0 0 0 0 0 0 0 0 0 0 0 0 0 0 0 0 0 0 0 0 0 0 0 0 0 0 0 0 0 0 0 0 0 0 0 0 0 0 0 0 0
0 0 0 0 0 0 0 0 0 0 0 0 0 0 0 0 0 0 0 0 0 0 0 0 0 0 0 0 0 0 0 0 0 0 0 0 0 0 0 0 0 0 0
0 0 0 0 0 0 0 0 0 0 0 0 0 0 0 0 0 0 0 0 0 0 0 0 0 0 0 0 0 0 0 0 0 0 0 0 0 0 0 0 0 0 0
0 0 0 0 0 0 0 0 0 0 0 0 0 0 0 0 0 0 0 0 0 0 0 0 0 0 0 0 0 0 0 0 0 0 0 0 0 0 0 0 0 0 0
0 0 0 0 0 0 0 0 0 0 0 0 0 0 0 0 0 0 0 0 0 0 0 0 0 0 0 0 0 0 0 0 0 0 0 0 0 0 0 0 0 0 0
0 0 0 0 0 0 0 0 0 0 0 0 0 0 0 0 0 0 0 0 0 0 0 0 0 0 0 0 0 0 0 0 0 0 0 0 0 0 0 0 0 0 0
0 0 0 0 0 0 0 0 0 0 0 0 0 0 0 0 0 0 0 0 0 0 0 0 0 0 0 0 0 0 0 0 0 0 0 0 0 0 0 0 0 0 0
0 0 0 0 0 0 0 0 0 0 0 0 0 0 0 0 0 0 0 0 0 0 0 0 0 0 0 0 0 0 0 0 0 0 0 0 0 0 0 0 0 0 0
0 0 0 0 0 0 0 0 0 0 0 0 0 0 0 0 0 0 0 0 0 0 0 0 0 0 0 0 0 0 0 0 0 0 0 0 0 0 0 0 0 0 0
0 0 0 0 0 0 0 0 0 0 0 0 0 0 0 0 0 0 0 0 0 0 0 0 0 0 0 0 0 0 0 0 0 0 0 0 0 0 0 0 0 0 0
0 0 0 0 0 0 0 0 0 0 0 0 0 0 0 0 0 0 0 0 0 0 0 0 0 0 0 0 0 0 0 0 0 0 0 0 0 0 0 0 0 0 0
0 0 0 0 0 0 0 0 0 0 0 0 0 0 0 0 0 0 0 0 0 0 0 0 0 0 0 0 0 0 0 0 0 0 0 0 0 0 0 0 0 0 0
0 0 0 0 0 0 0 0 0 0 0 0 0 0 0 0 0 0 0 0 0 0 0 0 0 0 0 0 0 0 0 0 0 0 0 0 0 0 0 0 0 0 0
0 0 0 0 0 0 0 0 0 0 0 0 0 0 0 0 0 0 0 0 0 0 0 0 0 0 0 0 0 0 0 0 0 0 0 0 0 0 0 0 0 0 0
0 0 0 0 0 0 0 0 0 0 0 0 0 0 0 0 0 0 0 0 0 0 0 0 0 0 0 0 0 0 0 0 0 0 0 0 0 0 0 0 0 0 0
0 0 0 0 0 0 0 0 0 0 0 0 0 0 0 0 0 0 0 0 0 0 0 0 0 0 0 0 0 0 0 0 0 0 0 0 0 0 0 0 0 0 0
0 0 0 0 0 0 0 0 0 0 0 0 0 0 0 0 0 0 0 0 0 0 0 0 0 0 0 0 0 0 0 0 0 0 0 0 0 0 0 0 0 0 0
0 0 0 0 0 0 0 0 0 0 0 0 0 0 0 0 0 0 0 0 0 0 0 0 0 0 0 0 0 0 0 0 0 0 0 0 0 0 0 0 0 0 0
Wind_Speed
4 3 4 5 6 5 6 6 7 6 5 4 4 3 2 1 1 1 1 1 1 1 1 1 1 1 1 2 2 2 2 2 1 2 4 5 5 5 5 5 5 6 6
5 4 4 4 4 5 6 6 6 6 5 4 3 3 3 2 1 1 1 1 1 1 1 2 1 1 1 2 2 1 1 2 1 1 3 5 5 4 4 3 4 5 4
11 8 6 4 5 5 5 6 6 6 5 5 4 4 3 3 2 2 1 1 0 0 1 1 1 1 1 2 2 2 3 3 2 2 2 3 4 4 4 4 4 4 4
9 8 7 6 5 4 5 6 6 6 6 6 5 5 3 2 1 0 0 1 1 1 0 0 1 1 1 2 3 2 2 3 3 2 3 5 4 4 5 3 4 5 6
11 11 9 7 6 5 5 5 6 6 5 5 6 6 4 2 1 1 1 2 2 2 1 1 0 1 1 2 3 3 3 2 3 3 3 3 3 5 6 9 5 4 5
10 9 7 7 5 5 5 5 6 5 5 6 5 6 5 4 3 1 1 1 1 2 2 1 1 1 2 3 3 3 4 3 4 4 3 4 4 4 5 8 9 8 6
12 12 10 9 8 7 6 6 7 5 5 6 5 5 5 5 4 2 1 0 1 1 2 1 1 2 3 3 3 3 4 4 4 5 4 4 5 5 5 8 10 10 6
12 13 13 11 9 9 8 7 7 6 5 5 5 4 4 3 2 2 2 1 1 2 2 2 3 3 4 4 3 3 4 4 5 6 6 5 5 5 5 5 8 12 8
14 13 12 11 10 9 8 8 8 6 6 6 5 4 4 3 2 2 1 1 1 2 2 2 3 4 4 4 4 3 5 5 5 5 6 5 5 4 5 5 5 7 13
12 12 13 12 10 9 8 7 7 7 6 6 5 4 3 3 2 2 1 1 2 2 3 3 4 4 5 5 4 4 5 5 6 5 6 6 5 5 4 5 5 5 9
16 14 13 11 10 8 8 8 7 6 6 5 4 4 3 2 2 1 1 1 2 2 3 4 4 5 5 5 5 6 6 7 7 7 7 8 7 5 5 5 5 6 7
13 12 11 11 10 10 9 8 7 7 6 5 5 4 3 2 1 1 2 2 2 3 4 4 5 5 6 6 6 7 7 7 8 8 8 9 7 8 6 6 7 7 8
10 10 10 11 12 11 10 8 7 7 6 5 5 3 2 2 2 2 2 2 3 4 4 4 5 6 7 7 7 7 8 8 9 9 9 9 9 9 8 8 8 8 9
11 11 11 10 10 10 9 8 7 6 6 5 4 3 3 3 3 3 3 3 4 4 5 6 6 7 7 7 8 8 8 9 9 9 9 9 9 10 10 9 9 9 10
10 12 12 10 9 9 8 8 7 6 5 5 4 3 3 3 3 3 4 4 5 5 6 6 7 7 6 7 8 7 8 8 9 9 9 10 13 17 15 12 9 9 9
11 11 11 11 11 10 9 8 7 6 5 5 4 3 3 3 4 4 5 5 6 6 6 7 7 8 8 15 19 15 8 7 8 8 8 10 12 16 22 24 23 20 13
10 11 11 11 10 10 9 9 7 5 5 4 3 3 3 4 5 5 5 6 6 6 7 7 7 8 11 19 21 21 12 8 7 8 8 9 10 17 10 17 22 21 24
9 9 9 8 8 7 7 6 6 5 4 3 3 3 4 5 5 5 6 6 6 6 7 8 8 8 11 20 21 22 12 8 8 9 9 10 10 11 14 12 12 12 13
8 8 8 8 8 8 7 7 5 4 3 3 4 4 4 5 5 6 7 6 6 7 7 7 8 9 12 19 22 22 8 7 9 9 10 11 11 18 24 16 13 13 11
7 8 8 8 8 6 6 6 4 3 4 4 5 5 5 5 6 7 7 6 6 7 7 8 8 9 10 17 21 22 7 8 8 8 9 16 18 23 25 15 12 15 13
8 9 9 7 6 6 6 5 3 4 5 4 4 5 5 6 7 7 6 7 7 7 7 9 8 8 11 16 20 21 10 8 9 8 7 8 21 25 26 23 13 17 18
8 8 7 6 4 5 5 3 4 4 4 4 5 6 6 6 5 6 7 7 7 7 8 8 9 7 9 13 16 21 21 19 11 9 7 10 23 26 26 20 20 25 21
7 6 6 5 3 3 3 3 4 3 3 4 5 6 6 6 6 6 7 7 6 6 7 7 9 8 6 9 19 22 23 23 14 10 18 23 26 24 16 18 24 19 8
5 5 5 4 2 2 2 4 4 3 4 5 6 6 6 6 6 5 5 6 6 7 7 8 9 9 7 6 7 8 10 14 13 11 15 21 21 17 17 16 11 7 7
4 4 4 4 3 2 3 4 4 3 4 6 6 6 6 6 6 6 6 7 7 8 10 8 7 9 10 11 20 16 10 8 10 12 8 6 6 6 6 7 7 6 6
4 4 3 3 3 3 4 4 4 4 5 5 6 5 5 5 6 7 8 12 14 19 21 20 19 14 19 25 25 25 24 24 24 16 7 7 7 8 8 8 7 6 6
Wind_Direction
164 124 100 96 96 101 110 117 120 126 125 119 120 117 116 99 82 92 125 151 174 182 180 201 220 203 216 240 250 259 277 278 279 306 303 286 273 271 267 267 273 277 278
157 137 118 103 106 115 114 116 121 125 127 125 124 123 121 109 103 58 56 77 122 152 169 190 210 215 229 259 262 247 269 275 249 255 313 318 322 320 281 273 266 269 282
164 156 144 131 125 130 135 129 126 123 121 119 107 88 71 54 42 24 360 348 34 128 168 193 201 225 218 250 259 245 238 266 274 199 217 278 285 303 282 270 266 277 281
161 157 154 150 150 150 137 127 124 120 120 119 122 127 131 144 182 197 311 340 5 10 5 178 193 233 239 256 263 249 235 235 265 266 227 228 243 279 299 286 277 275 273
166 163 163 158 152 148 140 132 124 119 119 118 126 124 124 139 126 77 49 9 357 0 5 35 42 312 285 277 276 277 258 232 240 246 250 257 254 236 263 286 285 280 261
166 159 154 145 142 144 140 137 130 127 127 124 128 134 140 141 128 112 82 356 342 345 348 354 345 300 285 277 273 269 267 256 252 251 241 240 248 253 252 275 287 283 271
167 163 161 161 160 161 158 152 143 141 140 134 136 145 149 149 153 160 163 174 318 310 302 314 305 293 284 283 280 277 275 266 261 257 253 247 247 250 259 275 287 287 281
174 172 172 169 168 169 166 161 157 153 151 145 147 148 148 147 159 170 172 195 226 254 274 291 292 291 293 294 292 284 277 273 267 269 267 264 262 257 255 264 287 296 290
180 178 175 173 172 172 173 169 163 158 160 157 151 150 151 150 162 170 171 209 246 264 290 298 299 298 298 295 295 282 281 281 271 269 269 265 263 260 258 257 257 279 296
184 182 181 179 177 174 170 166 163 163 163 160 160 157 162 164 166 160 197 261 282 295 309 307 303 301 299 296 292 284 279 279 274 267 268 267 265 262 257 253 254 251 275
189 188 186 181 173 165 164 165 165 158 160 161 156 150 162 164 157 169 237 267 282 298 298 297 298 297 295 293 288 283 283 279 279 278 274 271 270 266 261 256 256 259 264
191 187 180 173 170 170 168 168 166 163 165 160 152 156 160 150 162 227 258 267 280 287 288 291 293 292 290 288 284 284 284 279 279 279 276 275 276 268 264 261 262 265 263
187 181 177 177 177 173 169 166 165 164 160 153 150 153 161 174 216 242 259 270 278 287 290 289 287 286 286 285 281 276 277 274 272 272 271 273 273 273 269 265 267 268 271
186 182 181 179 174 169 165 162 163 161 156 153 155 170 196 212 228 243 257 266 272 280 283 282 280 280 282 283 280 278 274 271 269 266 264 265 263 267 271 271 267 267 270
186 184 180 173 166 161 160 158 158 159 156 157 170 199 216 225 238 252 261 268 272 272 274 280 282 282 283 278 280 275 268 267 269 267 262 262 270 275 281 283 275 270 271
189 181 172 166 166 163 159 156 159 164 159 167 193 213 225 240 250 257 264 271 274 274 275 276 278 281 284 298 304 303 286 275 272 273 270 270 279 285 289 292 293 290 285
181 174 170 168 165 161 157 161 163 158 160 179 207 226 237 250 257 262 269 270 271 272 276 275 273 274 280 297 304 305 303 284 275 273 274 281 281 292 282 285 288 287 285
170 164 156 150 148 145 145 145 146 154 168 193 225 240 246 254 263 267 268 268 266 268 270 273 272 273 281 298 306 307 302 281 272 270 271 274 276 276 283 275 272 268 271
156 149 145 140 138 141 142 139 147 157 180 218 239 247 245 253 263 265 266 266 268 270 269 268 271 273 282 297 304 306 291 278 273 270 270 277 276 282 291 291 285 282 276
128 129 126 124 130 139 138 140 157 176 218 235 244 249 246 248 255 260 265 266 266 268 272 273 271 271 275 290 301 304 289 282 279 273 268 280 287 291 294 291 285 286 285
124 126 125 128 138 140 135 146 173 218 235 244 252 257 254 253 256 262 264 270 273 275 275 277 276 272 276 290 298 302 297 282 283 282 277 273 291 294 294 294 288 287 291
121 124 124 126 133 138 140 166 219 239 249 255 260 263 263 264 267 266 271 273 275 279 280 282 282 272 275 286 294 300 301 300 294 288 283 282 293 295 297 298 295 297 302
129 126 130 131 136 149 157 197 237 249 256 261 264 266 270 269 268 269 275 280 277 277 283 283 286 286 272 276 294 300 301 300 296 286 292 297 300 302 301 296 298 301 298
132 129 132 142 169 193 201 219 245 254 258 266 271 272 274 277 275 271 269 273 276 278 282 284 287 289 284 273 275 275 286 293 294 291 291 297 299 298 295 296 296 287 276
132 137 148 169 205 227 244 250 255 260 266 269 271 274 271 272 278 273 265 273 261 267 283 282 279 289 293 289 298 302 298 293 287 298 291 288 292 288 284 282 279 275 279
136 143 160 190 225 244 260 267 265 256 259 268 271 270 271 273 273 280 286 280 281 290 293 293 293 292 294 301 304 306 306 307 306 306 297 296 291 290 290 290 288 283 279